Lewis Run, PA

4:17 PM EST on March 01, 2017 (GMT -0500)
Bradford Regional

Weather History for KBFD - April, 2014

Change the Weather History Date:

Saturday, April 12, 2014

  Actual Average Record
Temperature  
Mean Temperature 51 °F 43 °F  
Max Temperature 65 °F 54 °F 79 °F (1977)
Min Temperature 36 °F 31 °F 12 °F (1976)
Degree Days  
Heating Degree Days 14 17  
Month to date heating degree days 277 233  
Since 1 July heating degree days 7120 6840  
Cooling Degree Days 0 0  
Month to date cooling degree days 0 0  
Year to date cooling degree days 0 0  
Moisture  
Dew Point 34 °F    
Average Humidity 60    
Maximum Humidity 92    
Minimum Humidity 27    
Precipitation  
Precipitation 0.00 in 0.12 in 0.72 in (1994)
Month to date precipitation 2.25 1.46  
Year to date precipitation 7.78 10.47  
Sea Level Pressure  
Sea Level Pressure 30.13 in    
Wind  
Wind Speed 5 mph (SSW)    
Max Wind Speed 16 mph    
Max Gust Speed 21 mph    
Visibility 5 miles    
Events Fog    
T = Trace of Precipitation, MM = Missing Value Source: NWS Daily Summary

Daily Weather History Graph

Daily Weather History Graph

Search for Another Location

Airport or City:

Trip Planner

Search our weather history database for the weather conditions in past years. The results will help you decide how hot, cold, wet, or windy it might be!

Date:

Astronomy

Apr. 12, 2014 Rise Set
Actual Time 6:39 AM EDT 7:52 PM EDT
Civil Twilight 6:10 AM EDT 8:20 PM EDT
Nautical Twilight 5:36 AM EDT 8:55 PM EDT
Astronomical Twilight 5:00 AM EDT 9:31 PM EDT
Moon 5:26 PM EDT (4/12) 5:07 AM EDT (4/12)
Length of Visible Light 14h 10m
Length of Day
13h 12m
Waxing Gibbous, 93% of the Moon is Illuminated
Apr 12
Waxing Gibbous
Apr 15
Full
Apr 22
Last Quarter
Apr 29
New
May 6
First Quarter

Hourly Weather History & Observations

Time (EDT) Temp. Windchill Dew Point Humidity Pressure Visibility Wind Dir Wind Speed Gust Speed Precip Events Conditions
12:05 AM 39.0 °F 35.7 °F 36.0 °F 89% 30.07 in 0.8 mi SW 4.6 mph - N/A   Mist
12:18 AM 39.0 °F - 37.0 °F 93% 30.07 in 0.2 mi Calm Calm - N/A Fog Fog
12:53 AM 37.0 °F - 36.0 °F 96% 30.12 in 0.2 mi Calm Calm - N/A Fog Fog
1:07 AM 37.9 °F - 36.0 °F 93% 30.08 in 0.5 mi Calm Calm - N/A Fog Fog
1:53 AM 37.0 °F - 35.1 °F 93% 30.12 in 0.2 mi Calm Calm - N/A Fog Fog
2:53 AM 37.9 °F 35.5 °F 36.0 °F 93% 30.12 in 0.2 mi SW 3.5 mph - N/A Fog Fog
3:53 AM 37.0 °F 34.5 °F 35.1 °F 93% 30.13 in 0.2 mi South 3.5 mph - N/A Fog Fog
4:53 AM 36.0 °F 33.3 °F 34.0 °F 93% 30.16 in 0.2 mi SSW 3.5 mph - N/A Fog Fog
5:08 AM 36.0 °F 33.3 °F 34.0 °F 93% 30.13 in 0.5 mi SW 3.5 mph - N/A Fog Fog
5:26 AM 36.0 °F 32.1 °F 34.0 °F 93% 30.13 in 0.2 mi SW 4.6 mph - N/A Fog Fog
5:53 AM 36.0 °F - 34.0 °F 93% 30.17 in 0.5 mi Calm Calm - N/A Fog Fog
6:04 AM 36.0 °F - 34.0 °F 93% 30.14 in 0.2 mi Calm Calm - N/A Fog Fog
6:27 AM 36.0 °F - 34.0 °F 93% 30.15 in 0.5 mi Calm Calm - N/A Fog Fog
6:43 AM 36.0 °F - 34.0 °F 93% 30.15 in 0.2 mi Calm Calm - N/A Fog Fog
6:53 AM 36.0 °F 33.3 °F 34.0 °F 93% 30.19 in 0.2 mi SW 3.5 mph - N/A Fog Fog
7:32 AM 37.0 °F 34.5 °F 34.0 °F 89% 30.17 in 0.5 mi SW 3.5 mph - N/A Fog Fog
7:43 AM 37.0 °F 33.3 °F 35.1 °F 93% 30.17 in 1.5 mi SSW 4.6 mph - N/A   Overcast
7:53 AM 37.0 °F 33.3 °F 35.1 °F 93% 30.21 in 2.5 mi SW 4.6 mph - N/A   Overcast
8:02 AM 37.9 °F 34.4 °F 36.0 °F 93% 30.18 in 4.0 mi SSW 4.6 mph - N/A   Mostly Cloudy
8:21 AM 39.0 °F 34.8 °F 37.0 °F 93% 30.19 in 10.0 mi Variable 5.8 mph - N/A   Scattered Clouds
8:53 AM 41.0 °F 39.0 °F 37.9 °F 89% 30.22 in 10.0 mi Variable 3.5 mph - N/A   Clear
9:53 AM 46.9 °F - 39.0 °F 74% 30.22 in 10.0 mi SSW 6.9 mph - N/A   Clear
10:53 AM 53.1 °F - 39.9 °F 61% 30.22 in 10.0 mi Variable 3.5 mph - N/A   Clear
11:53 AM 57.0 °F - 37.0 °F 47% 30.19 in 10.0 mi SSW 5.8 mph - N/A   Clear
12:53 PM 60.1 °F - 30.0 °F 32% 30.17 in 10.0 mi West 11.5 mph 21.9 mph N/A   Clear
1:53 PM 62.1 °F - 28.9 °F 29% 30.14 in 10.0 mi SW 9.2 mph - N/A   Clear
2:53 PM 63.0 °F - 30.0 °F 29% 30.14 in 10.0 mi WNW 6.9 mph - N/A   Partly Cloudy
3:53 PM 64.0 °F - 30.9 °F 29% 30.12 in 10.0 mi Variable 6.9 mph - N/A   Clear
4:53 PM 63.0 °F - 28.9 °F 28% 30.12 in 10.0 mi WSW 6.9 mph - N/A   Clear
5:53 PM 63.0 °F - 28.9 °F 28% 30.10 in 10.0 mi SSW 6.9 mph - N/A   Partly Cloudy
6:53 PM 62.1 °F - 28.9 °F 29% 30.09 in 10.0 mi Calm Calm - N/A   Mostly Cloudy
7:53 PM 57.9 °F - 34.0 °F 41% 30.08 in 10.0 mi Calm Calm - N/A   Mostly Cloudy
8:53 PM 54.0 °F - 34.0 °F 47% 30.08 in 9.0 mi SSE 3.5 mph - N/A   Scattered Clouds
9:53 PM 55.0 °F - 32.0 °F 42% 30.06 in 10.0 mi SE 5.8 mph - N/A   Clear
10:53 PM 57.9 °F - 30.0 °F 35% 30.03 in 10.0 mi SSE 9.2 mph - N/A   Partly Cloudy
11:53 PM 57.0 °F - 30.0 °F 36% 30.00 in 10.0 mi SSE 9.2 mph - N/A   Overcast